"Pseudo-MPEC" for CKCFP6Z
Created 2024 Nov 25 20:31:09 UT using Find_Orb
Click here for an explanation of pseudo-MPECs
Astrometry:
CKCFP6Z*0C2024 11 02.41887304 44 20.620-10 39 08.53 ~B5KV 22.46GVNEOCPG96
CKCFP6Z 0C2024 11 02.42400704 44 20.573-10 39 04.46 ~B5KV 22.31GVNEOCPG96
CKCFP6Z 0C2024 11 02.42916704 44 20.504-10 39 01.12 ~B5KV 22.41GVNEOCPG96
Station data:
(G96) Mt. Lemmon Survey (N32.442729 W110.788720) US/Arizona. Observer A.
Zooniverse. 1.5-m reflector + 10K CCD.
Orbital elements: CKCFP6Z
Perihelion 2025 Jan 20.03939 +/- 45 TT = 0:56:43 (JD 2460695.53939)
Epoch 2024 Nov 2.0 TT = JDT 2460616.5 Earth MOID: 0.1112 AutoNEOCP
M 331.37704254 +/- 25 (J2000 ecliptic)
n 0.36213536 +/- 0.32 Peri. 56.18248 +/- 80
a 1.94934523 +/- 1.15 Node 69.06700 +/- 40
e 0.5085715 +/- 0.253 Incl. 24.46767 +/- 10
P 2.722/994.085d H 22.69 G 0.15 U 12.0 SR
q 0.95796379 +/- 0.417 Q 2.94072667 +/- 58.7
From 3 observations 2024 Nov. 2 (14.8 min); mean residual 0".14
Residuals in arcseconds: 241102 G96 .05- .12- 241102 G96 .11+ .25+ 241102 G96 .05- .13- Ephemerides (geocentric): Date (UTC) HH RA Dec delta r elong mag " sig PA ---- -------- ------------ ------------ ------ ------ ----- --- -------- 2024 11 25 21 04 18 52.257 +05 50 50.47 .18523 1.1666 164.7 20.1 73d 84 2024 11 25 22 04 18 45.211 +05 55 02.39 .18491 1.1664 164.7 20.1 73d 84 2024 11 25 23 04 18 38.137 +05 59 15.23 .18459 1.1661 164.8 20.1 73d 84 2024 11 26 00 04 18 31.036 +06 03 29.02 .18427 1.1658 164.9 20.1 73d 84 2024 11 26 01 04 18 23.908 +06 07 43.74 .18395 1.1656 165.0 20.1 73d 84 2024 11 26 02 04 18 16.751 +06 11 59.40 .18363 1.1653 165.0 20.1 73d 84 2024 11 26 03 04 18 09.567 +06 16 16.01 .18331 1.1650 165.1 20.1 73d 84 2024 11 26 04 04 18 02.356 +06 20 33.57 .18299 1.1648 165.2 20.1 73d 84 2024 11 26 05 04 17 55.116 +06 24 52.08 .18267 1.1645 165.3 20.1 73d 84 2024 11 26 06 04 17 47.848 +06 29 11.55 .18235 1.1642 165.3 20.1 73d 84 2024 11 26 07 04 17 40.552 +06 33 31.98 .18203 1.1640 165.4 20.1 73d 84 2024 11 26 08 04 17 33.227 +06 37 53.36 .18171 1.1637 165.5 20.1 73d 84 2024 11 26 09 04 17 25.874 +06 42 15.71 .18140 1.1634 165.6 20.0 73d 84 2024 11 26 10 04 17 18.493 +06 46 39.03 .18108 1.1632 165.6 20.0 73d 84 2024 11 26 11 04 17 11.082 +06 51 03.33 .18077 1.1629 165.7 20.0 73d 84 2024 11 26 12 04 17 03.643 +06 55 28.59 .18045 1.1626 165.8 20.0 73d 84 2024 11 26 13 04 16 56.175 +06 59 54.84 .18014 1.1624 165.9 20.0 73d 84 2024 11 26 14 04 16 48.677 +07 04 22.06 .17982 1.1621 165.9 20.0 73d 84 2024 11 26 15 04 16 41.151 +07 08 50.27 .17951 1.1618 166.0 20.0 73d 84 2024 11 26 16 04 16 33.594 +07 13 19.47 .17919 1.1616 166.1 20.0 73d 84 2024 11 26 17 04 16 26.009 +07 17 49.66 .17888 1.1613 166.2 20.0 73d 84 2024 11 26 18 04 16 18.394 +07 22 20.84 .17857 1.1610 166.2 20.0 73d 84 2024 11 26 19 04 16 10.749 +07 26 53.02 .17826 1.1608 166.3 20.0 73d 84 2024 11 26 20 04 16 03.074 +07 31 26.20 .17794 1.1605 166.4 20.0 73d 84 2024 11 26 21 04 15 55.369 +07 36 00.39 .17763 1.1602 166.5 20.0 73d 84 2024 11 26 22 04 15 47.633 +07 40 35.58 .17732 1.1600 166.5 20.0 73d 84 2024 11 26 23 04 15 39.868 +07 45 11.78 .17701 1.1597 166.6 20.0 73d 84 2024 11 27 00 04 15 32.072 +07 49 49.00 .17670 1.1595 166.7 19.9 73d 84 2024 11 27 01 04 15 24.245 +07 54 27.23 .17640 1.1592 166.8 19.9 73d 84 2024 11 27 02 04 15 16.388 +07 59 06.48 .17609 1.1589 166.8 19.9 73d 84 2024 11 27 03 04 15 08.499 +08 03 46.76 .17578 1.1587 166.9 19.9 73d 84 2024 11 27 04 04 15 00.580 +08 08 28.06 .17547 1.1584 167.0 19.9 73d 84 2024 11 27 05 04 14 52.629 +08 13 10.39 .17517 1.1581 167.1 19.9 73d 84 2024 11 27 06 04 14 44.647 +08 17 53.76 .17486 1.1579 167.1 19.9 73d 84 2024 11 27 07 04 14 36.634 +08 22 38.16 .17455 1.1576 167.2 19.9 73d 84 2024 11 27 08 04 14 28.589 +08 27 23.60 .17425 1.1573 167.3 19.9 73d 84 2024 11 27 09 04 14 20.512 +08 32 10.09 .17394 1.1571 167.4 19.9 73d 84 2024 11 27 10 04 14 12.404 +08 36 57.62 .17364 1.1568 167.4 19.9 73d 84 2024 11 27 11 04 14 04.263 +08 41 46.20 .17334 1.1565 167.5 19.9 73d 84 2024 11 27 12 04 13 56.090 +08 46 35.83 .17303 1.1563 167.6 19.9 73d 84 2024 11 27 13 04 13 47.885 +08 51 26.52 .17273 1.1560 167.7 19.9 73d 84 2024 11 27 14 04 13 39.647 +08 56 18.26 .17243 1.1557 167.7 19.9 73d 84 2024 11 27 15 04 13 31.377 +09 01 11.07 .17213 1.1555 167.8 19.8 73d 84 2024 11 27 16 04 13 23.074 +09 06 04.94 .17183 1.1552 167.9 19.8 73d 84 2024 11 27 17 04 13 14.738 +09 10 59.88 .17153 1.1550 167.9 19.8 73d 84 2024 11 27 18 04 13 06.368 +09 15 55.90 .17123 1.1547 168.0 19.8 73d 84 2024 11 27 19 04 12 57.966 +09 20 52.98 .17093 1.1544 168.1 19.8 73d 84 2024 11 27 20 04 12 49.530 +09 25 51.15 .17063 1.1542 168.2 19.8 73d 84